Fort Atkinson, Wisconsin, United States (53538)
Lat: 42.93N, Lon: 88.84W
Wx Zone: WIZ064
Local Info
Past Weather Observations for Today

NOTE: This archive is for the closest National Weather Service station to Fort Atkinson. Information may differ from the station used for current weather conditions.

Click here for Long-term Archive

Time Weather Temperature Dewpoint Humidity Pressure Winds Precip Visibility
07:55
Clear
55°F / 13°C 50°F / 10°C 82% 29.92 in
(1013 mb)
WNW 6.9 mph
(WNW 11 kph)
- 10SM
07:35
Clear
54°F / 12°C 50°F / 10°C 88% 29.92 in
(1013 mb)
W 6.9 mph
(W 11 kph)
- 10SM
07:15
Clear
52°F / 11°C 52°F / 11°C 100% 29.92 in
(1013 mb)
W 5.8 mph
(W 9 kph)
- 7SM
06:55
Clear
Fog And Mist
52°F / 11°C 52°F / 11°C 100% 29.92 in
(1013 mb)
W 5.8 mph
(W 9 kph)
- 5SM
06:35
Clear
Fog And Mist
52°F / 11°C 52°F / 11°C 100% 29.92 in
(1013 mb)
W 4.6 mph
(W 7 kph)
- 5SM
06:15
Clear
Fog And Mist
52°F / 11°C 52°F / 11°C 100% 29.89 in
(1012 mb)
W 4.6 mph
(W 7 kph)
- 5SM
05:55
Clear
Fog And Mist
52°F / 11°C 52°F / 11°C 100% 29.89 in
(1012 mb)
W 3.5 mph
(W 6 kph)
- 5SM
05:35
Clear
Fog And Mist
52°F / 11°C 52°F / 11°C 100% 29.89 in
(1012 mb)
W 3.5 mph
(W 6 kph)
- 5SM
05:15
Clear
Fog And Mist
52°F / 11°C 52°F / 11°C 100% 29.89 in
(1012 mb)
W 5.8 mph
(W 9 kph)
- 5SM
04:55
Clear
Fog And Mist
50°F / 10°C 50°F / 10°C 100% 29.89 in
(1012 mb)
Calm - 3SM
04:35
Mostly Cloudy
Fog And Mist
50°F / 10°C 50°F / 10°C 100% 29.89 in
(1012 mb)
SSW 3.5 mph
(SSW 6 kph)
- 1SM
04:15
Mostly Cloudy
Fog
48°F / 9°C 48°F / 9°C 100% 29.89 in
(1012 mb)
Calm - 1/4SM
03:55
Clear
Fog And Mist
52°F / 11°C 52°F / 11°C 100% 29.89 in
(1012 mb)
SW 4.6 mph
(SW 7 kph)
- 2SM
03:35
Partly Cloudy
Fog And Mist
50°F / 10°C 50°F / 10°C 100% 29.89 in
(1012 mb)
SW 4.6 mph
(SW 7 kph)
- 2 1/2SM
03:15
Mostly Cloudy
Fog And Mist
52°F / 11°C 52°F / 11°C 100% 29.89 in
(1012 mb)
SW 4.6 mph
(SW 7 kph)
- 3SM
02:55
Overcast
Fog And Mist
52°F / 11°C 52°F / 11°C 100% 29.89 in
(1012 mb)
SW 4.6 mph
(SW 7 kph)
- 4SM
02:35
Overcast
Fog And Mist
55°F / 13°C 55°F / 13°C 100% 29.89 in
(1012 mb)
SW 4.6 mph
(SW 7 kph)
- 5SM
02:15
Overcast
Fog And Mist
55°F / 13°C 55°F / 13°C 100% 29.89 in
(1012 mb)
SSW 4.6 mph
(SSW 7 kph)
- 5SM
01:55
Overcast
55°F / 13°C 55°F / 13°C 100% 29.89 in
(1012 mb)
SSW 3.5 mph
(SSW 6 kph)
- 7SM
01:35
Overcast
54°F / 12°C 54°F / 12°C 100% 29.89 in
(1012 mb)
SW 5.8 mph
(SW 9 kph)
- 7SM
01:15
Overcast
54°F / 12°C 54°F / 12°C 100% 29.89 in
(1012 mb)
SSW 6.9 mph
(SSW 11 kph)
- 10SM
00:55
Overcast
54°F / 12°C 52°F / 11°C 94% 29.89 in
(1012 mb)
SSW 4.6 mph
(SSW 7 kph)
- 10SM
00:35
Overcast
52°F / 11°C 52°F / 11°C 100% 29.89 in
(1012 mb)
SW 3.5 mph
(SW 6 kph)
- 10SM
00:15
Mostly Cloudy
52°F / 11°C 52°F / 11°C 100% 29.86 in
(1011 mb)
SW 3.5 mph
(SW 6 kph)
- 10SM
Time Weather Temperature Dewpoint Humidity Pressure Winds Precip Visibility


Weather for websites

WeatherForYou.com, LLC is not responsible for any damages or problems caused by this service. Current weather conditions are obtained from the closest station including government and personal stations which may have varying degrees of accuracy. Weather forecasts are derived from the NOAA NDFD. Like all things, this site belongs to Jesus Christ... He just trusts me to maintain it. If you have any questions or comments email webmaster@weatherforyou.com

Copyright © 2014, WeatherForYou.com LLC. All rights reserved.